Wind_Speed
6 6 6 6 5 5 5 5 5 6 6 7 7 7 7 7 7 8 8 7 7 6 6 4 3 4 3 2 2 2 2 3 3 3 4 4 4 4 4 4 5 5 6
5 5 5 5 5 5 5 5 5 6 6 6 6 7 7 7 7 8 7 7 7 7 6 5 4 4 3 2 3 3 3 3 3 4 4 4 4 4 5 5 5 5 6
4 4 4 4 4 5 5 5 5 6 6 6 6 7 7 7 7 7 7 7 7 7 6 5 4 4 4 3 2 2 3 3 4 4 3 3 4 4 4 5 5 6 6
3 3 3 3 3 3 4 4 4 5 6 6 6 6 7 7 6 6 7 7 7 6 6 5 5 4 4 3 2 2 2 3 3 3 3 4 4 4 4 5 5 6 5
2 2 2 1 1 2 3 3 4 4 5 6 6 7 7 7 6 6 6 6 7 6 6 6 5 4 4 4 3 3 2 3 3 3 3 4 5 5 5 6 6 6 6
1 1 1 0 1 1 2 2 3 4 5 5 6 6 7 6 6 6 6 6 7 6 6 6 6 5 5 4 4 3 3 3 3 4 4 5 6 6 6 7 7 7 8
0 1 1 1 1 1 1 2 3 4 5 5 6 6 7 6 6 5 6 7 7 7 7 6 6 6 6 5 4 4 4 4 5 5 6 6 6 7 7 8 8 8 9
1 1 2 2 2 2 2 2 3 4 5 6 7 7 7 7 7 6 7 7 7 7 7 7 7 6 6 6 5 5 5 5 5 6 7 7 8 8 8 8 9 9 10
2 3 3 3 3 3 3 4 5 5 6 7 8 8 8 8 8 8 8 8 8 8 8 8 7 6 6 6 7 7 6 7 7 7 7 7 8 9 9 10 10 10 11
4 4 4 4 4 4 4 5 6 7 7 8 8 8 9 9 9 9 10 10 9 8 8 8 8 8 8 7 8 8 8 8 8 8 8 9 9 9 10 10 11 11 11
5 5 5 5 5 5 6 7 7 8 9 9 9 9 10 10 10 10 10 10 10 10 10 9 9 9 9 9 9 9 9 10 9 9 9 10 10 10 10 10 11 12 12
5 6 6 6 7 7 8 8 8 9 10 10 10 11 11 11 11 12 11 11 11 11 11 10 10 10 10 10 10 11 11 11 10 10 9 9 9 10 11 11 11 12 12
7 7 8 8 8 9 9 10 10 10 10 11 11 12 12 12 12 13 13 12 12 12 12 11 11 10 11 12 12 12 11 11 11 11 10 10 10 10 11 11 11 12 12
8 9 9 9 10 11 11 11 11 11 12 12 12 13 13 13 13 14 14 13 13 13 13 13 13 13 13 13 12 13 12 11 11 11 11 11 11 11 12 12 12 13 14
10 10 11 11 12 12 12 12 13 13 13 13 13 14 14 14 15 15 15 14 14 14 14 15 16 16 15 15 15 14 14 14 13 12 13 12 13 13 13 13 13 14 14
12 12 11 12 13 13 13 13 14 15 14 14 15 15 16 16 16 16 16 17 17 16 16 16 17 18 18 17 17 16 16 15 14 14 14 15 15 15 14 14 14 15 14
14 14 13 14 14 14 15 15 16 16 17 17 17 18 18 18 18 18 19 19 19 19 18 17 18 19 19 19 18 17 17 17 17 16 16 16 16 16 16 16 16 16 16
16 16 16 17 16 17 17 18 19 19 19 19 20 20 21 20 20 20 20 21 21 21 20 20 20 20 20 20 19 19 19 19 19 19 19 18 18 18 18 18 18 18 18
17 18 18 19 19 19 19 20 21 21 22 22 22 22 22 21 21 21 22 22 22 22 23 22 22 22 22 22 22 22 21 21 21 21 21 21 21 21 21 21 21 20 20
18 19 19 20 20 21 21 21 22 23 24 23 23 23 23 22 21 21 22 23 23 24 24 24 24 24 23 23 23 23 23 23 23 23 23 23 23 23 24 24 23 23 22
19 19 20 21 21 21 22 22 23 23 23 24 24 23 23 22 23 23 24 25 25 25 25 25 25 25 24 24 25 24 24 24 24 24 24 24 25 25 25 25 25 24 24
19 20 21 22 22 22 23 23 23 23 23 23 24 24 24 25 25 26 26 26 25 25 24 24 24 24 24 24 25 25 24 25 25 25 25 26 26 26 25 25 25 25 25
22 22 22 23 24 24 24 25 25 24 24 25 25 26 26 26 27 26 26 26 26 26 26 26 26 26 26 25 24 24 24 24 25 25 26 26 26 26 26 26 26 26 27
23 24 25 25 25 26 26 26 26 26 26 26 26 26 26 26 27 27 27 27 27 27 27 28 28 28 28 27 26 26 26 26 26 27 28 28 28 27 27 27 27 28 28
24 24 25 25 26 27 27 28 27 27 27 27 27 27 27 28 28 28 28 28 28 28 29 29 29 30 30 29 28 28 27 27 28 29 29 29 29 29 29 29 29 30 30
25 25 25 26 27 28 28 28 28 28 28 28 28 29 29 29 29 30 30 30 30 30 30 31 31 31 31 31 31 30 30 30 31 31 30 30 30 30 30 30 31 31 31
Wind_Direction
76 70 65 67 66 72 72 66 48 42 40 34 28 29 30 28 25 23 21 19 14 10 10 13 12 2 353 327 301 274 266 259 255 247 247 249 247 238 235 243 247 245 241
71 68 63 71 64 73 75 59 44 37 32 27 23 21 22 22 23 23 22 21 16 12 12 16 13 15 3 330 290 272 264 259 253 253 258 250 245 242 245 249 245 247 248
69 69 69 71 66 65 62 50 39 33 25 19 16 17 17 17 20 17 14 12 9 7 6 9 6 359 356 347 319 292 271 261 258 252 246 256 259 259 261 260 253 253 251
66 68 72 72 66 61 50 44 28 19 18 15 12 11 10 10 14 16 10 5 6 6 4 6 4 359 350 346 336 317 292 277 266 252 251 264 272 268 268 269 263 255 252
66 65 59 54 49 43 43 32 20 10 8 10 11 9 3 359 0 6 7 3 4 5 3 359 359 355 353 356 348 325 297 281 265 262 260 264 270 269 265 265 262 259 259
53 20 23 341 311 3 24 15 3 356 353 358 360 358 355 351 352 353 356 355 352 352 350 354 355 348 341 341 345 328 302 288 276 270 268 272 272 271 267 265 262 261 261
11 329 303 299 290 316 336 353 350 345 343 344 342 342 345 345 345 343 341 341 340 340 338 336 336 338 335 331 333 327 315 299 286 278 274 275 273 271 268 265 263 262 263
290 302 298 316 308 294 296 326 338 335 333 335 332 329 332 335 336 335 336 335 332 328 325 319 319 323 321 318 315 314 308 307 298 288 284 282 279 275 272 269 266 265 263
278 283 289 299 308 297 296 306 317 325 328 331 330 328 326 324 326 329 327 326 321 317 317 315 311 310 305 306 307 304 303 306 301 295 293 290 282 278 277 274 272 269 266
276 279 293 296 305 302 298 302 310 314 319 323 324 325 324 319 318 319 322 322 318 310 310 310 307 305 305 303 300 299 300 303 300 293 289 287 283 281 279 278 274 272 270
274 276 287 292 290 292 293 299 306 309 313 315 318 319 318 314 312 312 314 316 313 308 300 298 299 299 300 302 299 299 298 296 300 301 296 290 287 283 282 283 280 274 271
273 274 279 284 283 288 291 294 300 305 310 311 313 312 311 309 305 306 307 308 307 306 302 296 295 296 299 297 301 298 295 294 295 298 299 298 295 290 288 287 286 281 277
273 272 278 287 286 287 288 290 297 301 306 308 310 312 309 308 304 303 304 304 305 305 302 296 293 296 298 298 297 299 295 291 292 292 292 296 298 294 291 288 286 285 283
274 274 279 287 288 288 287 289 294 299 301 304 308 310 308 304 303 304 304 300 300 298 297 294 293 294 293 295 294 293 294 293 290 288 288 289 291 294 290 289 286 282 280
274 274 279 286 289 288 288 289 291 297 299 301 304 306 307 303 302 303 301 298 298 296 294 292 290 294 292 290 288 290 289 287 285 284 285 285 287 289 290 288 288 285 282
273 274 281 288 289 288 288 290 293 294 296 298 299 303 303 301 300 300 298 296 296 295 292 291 289 289 291 290 289 285 286 285 282 281 281 282 284 286 287 287 286 286 281
272 274 279 284 287 288 289 291 292 293 295 295 296 298 299 297 298 298 297 294 293 292 291 291 290 287 288 290 291 286 285 284 282 281 280 280 283 284 284 285 285 284 283
270 272 278 281 284 286 287 289 289 291 294 294 294 295 297 295 296 296 296 296 294 292 291 290 289 289 286 288 288 285 282 282 282 282 281 280 280 283 284 285 284 283 282
276 276 278 280 282 284 286 287 288 288 292 293 294 294 296 294 296 297 296 297 296 294 292 290 289 288 286 284 284 284 283 280 279 279 279 280 280 281 283 284 282 282 281
283 280 280 281 282 285 286 287 287 288 290 292 293 294 294 294 294 296 296 296 296 295 293 292 291 289 287 284 284 284 283 281 278 278 277 278 279 280 282 281 280 280 281
284 283 283 282 282 285 287 288 288 288 290 291 290 290 291 292 293 296 295 293 293 293 293 292 291 290 287 283 283 283 282 281 279 279 278 278 278 280 280 279 278 277 277
284 285 285 283 285 288 289 288 291 290 290 290 290 290 290 292 294 295 294 294 294 293 292 291 291 290 289 286 284 282 281 281 280 280 280 280 279 280 281 279 278 277 277
287 287 287 287 286 286 287 288 288 290 291 290 289 290 289 290 292 294 295 295 296 294 293 293 292 291 290 288 285 284 282 281 281 281 281 281 281 280 281 280 279 279 279
287 288 289 289 288 287 286 286 286 288 290 291 291 291 292 291 293 294 295 295 294 294 293 293 293 291 289 288 285 283 281 280 281 281 281 281 280 279 279 279 278 278 278
292 292 290 289 287 287 287 285 286 287 288 290 289 289 291 292 292 293 294 294 293 293 293 291 291 291 289 287 284 282 279 279 280 280 280 281 280 278 277 277 278 279 279
292 290 290 289 288 287 286 284 285 286 287 288 288 289 289 289 290 291 292 293 293 292 292 290 289 289 288 286 284 282 280 279 280 279 279 279 279 279 278 278 278 279 279
Height
5892 5891 5891 5891 5890 5890 5890 5889 5889 5888 5887 5887 5886 5885 5884 5883 5882 5881 5880 5878 5877 5876 5875 5874 5873 5872 5872 5871 5871 5871 5871 5871 5871 5871 5871 5872 5872 5873 5873 5874 5874 5875 5875
5892 5892 5892 5891 5891 5890 5890 5890 5889 5889 5888 5888 5887 5886 5885 5884 5882 5881 5880 5879 5877 5876 5875 5874 5873 5873 5872 5871 5871 5870 5870 5870 5870 5871 5871 5871 5871 5872 5872 5872 5873 5874 5874
5893 5892 5892 5892 5892 5891 5891 5890 5890 5889 5889 5888 5887 5886 5885 5883 5882 5881 5880 5879 5878 5877 5875 5874 5873 5873 5872 5871 5870 5870 5870 5869 5870 5870 5870 5870 5870 5871 5871 5871 5872 5872 5873
5893 5893 5893 5893 5892 5892 5891 5891 5890 5890 5889 5888 5887 5886 5885 5883 5882 5881 5880 5879 5878 5877 5876 5874 5873 5872 5871 5870 5870 5869 5869 5869 5869 5869 5869 5869 5870 5870 5870 5870 5870 5871 5871
5894 5893 5893 5893 5892 5892 5891 5891 5890 5890 5889 5888 5887 5886 5884 5883 5882 5881 5880 5879 5878 5877 5876 5875 5873 5872 5871 5870 5870 5869 5869 5868 5868 5868 5868 5868 5868 5869 5869 5869 5869 5869 5870
5893 5893 5893 5893 5892 5892 5891 5891 5890 5890 5889 5888 5887 5885 5884 5883 5882 5881 5880 5879 5878 5877 5876 5875 5873 5872 5871 5870 5869 5869 5868 5868 5867 5867 5867 5867 5867 5867 5867 5867 5867 5868 5868
5893 5893 5892 5892 5892 5891 5891 5890 5890 5889 5888 5887 5886 5885 5884 5883 5881 5880 5879 5878 5877 5876 5875 5874 5873 5872 5871 5870 5869 5868 5868 5867 5866 5866 5866 5866 5866 5865 5865 5865 5865 5866 5866
5892 5892 5892 5892 5891 5891 5890 5890 5889 5888 5887 5886 5885 5884 5883 5883 5881 5880 5878 5877 5876 5875 5874 5873 5872 5871 5870 5869 5868 5868 5867 5866 5865 5865 5865 5864 5864 5864 5863 5863 5863 5863 5863
5892 5892 5891 5891 5891 5890 5890 5889 5888 5887 5886 5885 5884 5883 5882 5881 5880 5879 5877 5876 5875 5874 5873 5872 5871 5870 5869 5868 5867 5866 5866 5865 5864 5864 5863 5862 5862 5862 5861 5861 5861 5861 5861
5891 5891 5890 5890 5890 5889 5889 5888 5887 5886 5885 5884 5883 5882 5881 5880 5879 5877 5876 5875 5873 5872 5871 5870 5869 5868 5867 5867 5866 5865 5864 5863 5862 5862 5861 5860 5860 5859 5859 5858 5858 5858 5858
5890 5890 5889 5889 5889 5888 5887 5887 5886 5884 5883 5882 5881 5880 5879 5878 5877 5876 5875 5873 5872 5870 5869 5868 5867 5866 5865 5865 5864 5863 5862 5861 5860 5859 5859 5858 5857 5857 5856 5856 5855 5855 5855
5888 5888 5888 5887 5887 5887 5886 5885 5884 5883 5882 5880 5879 5878 5877 5876 5874 5873 5872 5871 5870 5868 5867 5865 5864 5864 5863 5862 5861 5860 5859 5858 5858 5857 5856 5855 5854 5854 5853 5853 5852 5852 5852
5886 5886 5886 5885 5885 5884 5884 5883 5882 5881 5880 5879 5877 5876 5874 5873 5872 5871 5869 5868 5867 5866 5864 5863 5862 5861 5860 5859 5858 5857 5856 5855 5854 5854 5853 5853 5851 5851 5850 5850 5849 5849 5848
5884 5884 5883 5883 5882 5882 5881 5880 5879 5878 5877 5876 5875 5873 5872 5870 5869 5867 5866 5865 5864 5863 5862 5860 5859 5858 5858 5856 5855 5854 5853 5852 5851 5850 5850 5850 5849 5848 5847 5847 5846 5845 5845
5882 5882 5881 5881 5880 5879 5878 5877 5877 5876 5874 5873 5872 5870 5869 5867 5865 5864 5863 5862 5861 5860 5859 5857 5856 5855 5854 5853 5851 5850 5849 5848 5848 5847 5846 5846 5845 5844 5844 5843 5842 5841 5841
5879 5879 5878 5878 5877 5876 5875 5874 5874 5872 5871 5870 5869 5867 5866 5864 5862 5860 5859 5858 5856 5855 5854 5853 5852 5851 5849 5848 5847 5846 5845 5844 5843 5842 5842 5841 5841 5840 5839 5839 5838 5837 5836
5876 5876 5875 5874 5874 5873 5872 5871 5870 5869 5867 5866 5865 5863 5861 5860 5858 5856 5855 5853 5852 5850 5849 5848 5847 5846 5845 5843 5842 5841 5841 5840 5839 5838 5837 5837 5836 5836 5835 5834 5833 5833 5832
5872 5871 5871 5870 5869 5869 5867 5866 5865 5864 5862 5861 5860 5858 5856 5855 5853 5851 5849 5848 5846 5845 5844 5843 5842 5840 5839 5838 5837 5836 5836 5835 5833 5833 5832 5831 5831 5830 5830 5829 5829 5828 5827
5868 5867 5866 5865 5865 5864 5863 5861 5860 5859 5857 5856 5854 5852 5851 5849 5848 5846 5844 5842 5841 5840 5839 5837 5836 5835 5834 5832 5831 5830 5829 5829 5828 5827 5826 5826 5825 5824 5824 5823 5823 5822 5821
5863 5862 5861 5860 5859 5858 5857 5856 5855 5853 5852 5850 5848 5846 5845 5843 5842 5840 5838 5837 5835 5834 5832 5831 5829 5828 5827 5826 5825 5824 5823 5822 5821 5820 5820 5819 5818 5818 5817 5817 5816 5815 5815
5858 5857 5856 5854 5853 5852 5851 5850 5848 5847 5846 5844 5842 5840 5839 5837 5836 5834 5832 5831 5829 5827 5826 5824 5823 5821 5820 5818 5817 5816 5815 5815 5814 5813 5812 5812 5811 5810 5809 5809 5809 5808 5808
5852 5851 5850 5849 5847 5847 5845 5844 5842 5841 5839 5838 5836 5835 5833 5831 5830 5828 5826 5824 5822 5821 5819 5817 5816 5814 5813 5811 5810 5809 5808 5807 5807 5807 5805 5805 5804 5803 5802 5801 5801 5800 5800
5847 5845 5844 5843 5842 5841 5839 5838 5836 5835 5833 5832 5830 5828 5826 5825 5823 5821 5819 5817 5815 5813 5812 5811 5809 5807 5805 5804 5802 5801 5801 5800 5799 5798 5798 5797 5796 5795 5794 5793 5793 5793 5792
5841 5839 5838 5836 5835 5834 5833 5831 5830 5828 5826 5825 5823 5821 5819 5818 5816 5814 5812 5810 5808 5806 5804 5802 5801 5799 5797 5796 5794 5794 5793 5792 5791 5790 5789 5789 5788 5787 5786 5786 5785 5784 5784
5834 5833 5831 5830 5829 5828 5826 5824 5822 5821 5819 5818 5816 5814 5813 5811 5809 5807 5805 5803 5800 5798 5796 5794 5792 5790 5789 5787 5786 5785 5784 5783 5783 5782 5781 5780 5779 5779 5778 5777 5776 5775 5775
5827 5826 5824 5823 5821 5820 5818 5817 5815 5814 5812 5810 5808 5807 5805 5803 5801 5799 5797 5795 5793 5790 5788 5786 5784 5782 5780 5778 5777 5776 5775 5774 5773 5773 5772 5771 5770 5769 5769 5768 5767 5766 5765